Home > Weather > Whistler > Past weeks

Flag for Canada Weather for the Past 2 Weeks in Whistler, British Columbia, Canada

Now
41 °F

Quite cool.


Feels Like: 38 °F
Forecast: 32 / 42 °F
Wind: 5 mph from North

Location: Squamish Airport

Current Time: Feb 11, 2016 at 9:13:05 AM

Latest Report: Feb 11, 2016 at 8:00 AM


Visibility: N/A

Pressure: 30.25 "Hg (27.85 "Hg at 674m altitude)

Humidity: 89%

Dew point: 38 °F

Location of WhistlerLocation

Historic Weather in Whistler — Graph

°F

Whistler Temperature Yesterday

Maximum temperature yesterday: 48 °F (at 5:00 PM)
Minimum temperature yesterday: 38 °F (at 3:00 AM)
Average temperature yesterday: 42 °F

High & Low Weather Summary for the Past Weeks

 TemperatureHumidityPressure
High56 °F (Feb 9, 2:00 PM)100% (Jan 27, 1:00 PM)30.65 "Hg (Jan 27, 1:00 PM)
Low31 °F (Feb 1, 11:00 PM)51% (Feb 9, 2:00 PM)29.58 "Hg (Jan 29, 1:00 PM)
Average38 °F93%30.14 "Hg
* Reported Jan 27 8:00 AM — Feb 11 8:00 AM, Whistler, Weather by CustomWeather, © 2016

Note: Actual official high and low records may vary slightly from our data, if they occured in-between our weather recording intervals... More about our weather records

Advertising

Whistler Weather History for the Previous 24 Hours

 ConditionsComfort  
Time TempWeatherWind HumidityBarometerVisibility
8:00 AM
Thu, Feb 11
41 °FQuite cool.5 mph89%30.25 "HgN/A
7:00 AM40 °FChilly.2 mph96%30.26 "HgN/A
6:00 AM40 °FQuite cool.3 mph97%30.27 "HgN/A
5:00 AM40 °FChilly.2 mph98%30.30 "HgN/A
4:00 AM39 °FChilly.1 mph97%30.31 "HgN/A
3:00 AM41 °FQuite cool.2 mph97%30.31 "HgN/A
2:00 AM42 °FQuite cool.3 mph97%30.31 "HgN/A
1:00 AM42 °FQuite cool.2 mph97%30.32 "HgN/A
12:00 AM43 °FQuite cool.2 mph97%30.31 "HgN/A
11:00 PM
Wed, Feb 10
42 °FQuite cool.1 mph96%30.29 "HgN/A
10:00 PM45 °FCool.1 mph96%30.27 "HgN/A
9:00 PM46 °FCool.3 mph97%30.27 "HgN/A
8:00 PM45 °FQuite cool.3 mph96%30.24 "HgN/A
7:00 PM45 °FQuite cool.1 mph90%30.22 "HgN/A
6:00 PM45 °FQuite cool.2 mph95%30.20 "HgN/A
5:00 PM48 °FCool.5 mph95%30.17 "HgN/A
4:00 PM46 °FCool.6 mph96%30.14 "HgN/A
3:00 PM42 °FQuite cool.No wind100%30.14 "HgN/A
2:00 PM44 °FQuite cool.No wind96%30.15 "HgN/A
1:00 PM43 °FQuite cool.2 mph96%30.16 "HgN/A
12:00 PM42 °FQuite cool.3 mph96%30.16 "HgN/A
11:00 AM42 °FQuite cool.2 mph96%30.17 "HgN/A
10:00 AM41 °FQuite cool.1 mph89%30.15 "HgN/A
9:00 AM42 °FQuite cool.3 mph85%30.11 "HgN/A
Weather by CustomWeather, © 2016

See weather overviewHow to use our weather pages